Flag Weather past 2 weeks in Valletta, Malta

Now
64 °F

Clear.


Feels Like: 64 °F
Forecast: 56 / 69 °F
Wind: 6 mph from Northwest

Location: Luqa

Current Time: Oct 30, 2014 at 5:50:22 PM

Latest Report: Oct 30, 2014 at 5:15 PM


Visibility: 10 mi

Pressure: 30.09 "Hg

Humidity: 73%

Dew point: 55 °F

Location of VallettaLocation

Historic Weather in Valletta — Graph

°F

Valletta temperature yesterday

Maximum temperature yesterday: 72 °F (at 10:45 AM)
Minimum temperature yesterday: 57 °F (at 4:15 AM)
Average temperature yesterday: 64 °F

Past Weeks' High & Low Weather Summary

 TemperatureHumidityPressure
High86 °F (Oct 18, 1:45 PM)100% (Oct 17, 12:45 AM)30.24 "Hg (Oct 17, 12:45 AM)
Low57 °F (Oct 27, 5:45 AM)33% (Oct 23, 12:15 PM)29.74 "Hg (Oct 22, 3:45 PM)
Average70 °F72%30.04 "Hg
* Reported Oct 15 5:15 PM — Oct 30 4:45 PM, Valletta, Weather by CustomWeather, © 2014

Note: Actual official high and low records may vary slightly from our data, if they occured in-between our weather recording intervals... More about our weather records

Advertising

Valletta weather history for previous 24 hours

 ConditionsComfort  
Time TempWeatherWind HumidityBarometerVisibility
4:45 PM
Oct 30
68 °FPassing clouds.7 mph64%30.09 "HgN/A
4:15 PM68 °FPassing clouds.8 mph64%30.09 "HgN/A
3:45 PM70 °FPassing clouds.9 mph60%30.09 "HgN/A
3:15 PM70 °FPassing clouds.9 mph64%30.09 "HgN/A
2:45 PM70 °FPassing clouds.10 mph64%30.09 "HgN/A
2:15 PM72 °FScattered clouds.9 mph57%30.09 "HgN/A
1:45 PM72 °FScattered clouds.8 mph57%30.09 "HgN/A
1:15 PM70 °FScattered clouds.8 mph57%30.09 "HgN/A
12:45 PM72 °FScattered clouds.8 mph57%30.09 "HgN/A
12:15 PM70 °FScattered clouds.9 mph60%30.12 "HgN/A
11:45 AM70 °FScattered clouds.7 mph57%30.12 "HgN/A
11:15 AM70 °FScattered clouds.6 mph60%30.12 "HgN/A
10:45 AM72 °FScattered clouds.7 mph57%30.12 "HgN/A
10:15 AM70 °FScattered clouds.6 mph60%30.12 "HgN/A
9:45 AM70 °FScattered clouds.6 mph64%30.12 "HgN/A
9:15 AM70 °FPassing clouds.5 mph64%30.12 "HgN/A
8:45 AM68 °FPassing clouds.5 mph69%30.12 "HgN/A
8:15 AM66 °FPassing clouds.3 mph73%30.12 "HgN/A
7:45 AM66 °FPassing clouds.3 mph73%30.09 "HgN/A
7:15 AM61 °FPassing clouds.3 mph83%30.09 "HgN/A
6:45 AM63 °FPassing clouds.5 mph77%30.09 "HgN/A
6:15 AM63 °FPassing clouds.2 mph77%30.09 "HgN/A
5:45 AM63 °FPassing clouds.6 mph83%30.07 "HgN/A
5:15 AM61 °FPassing clouds.5 mph88%30.07 "HgN/A
4:45 AM61 °FLight rain. Passing clouds.2 mph94%30.09 "HgN/A
4:15 AM61 °FPassing clouds.2 mph88%30.09 "HgN/A
3:45 AM61 °FPassing clouds.2 mph94%30.09 "HgN/A
3:15 AM61 °FPassing clouds.2 mph94%30.09 "HgN/A
2:45 AM61 °FPassing clouds.2 mph88%30.09 "HgN/A
2:15 AM61 °FPassing clouds.1 mph88%30.09 "HgN/A
1:45 AM61 °FPassing clouds.2 mph88%30.09 "HgN/A
1:15 AM61 °FPassing clouds.2 mph88%30.09 "Hg5 mi
12:15 AM61 °FClear.2 mph88%30.09 "Hg10 mi
11:45 PM
Oct 29
61 °FClear.1 mph88%30.09 "Hg10 mi
11:15 PM61 °FClear.2 mph88%30.09 "Hg10 mi
10:45 PM61 °FClear.1 mph88%30.09 "Hg10 mi
10:15 PM61 °FClear.No wind88%30.09 "Hg10 mi
9:45 PM63 °FClear.1 mph83%30.09 "Hg10 mi
9:15 PM63 °FPassing clouds.1 mph83%30.09 "HgN/A
8:45 PM63 °FPassing clouds.2 mph83%30.09 "HgN/A
8:15 PM63 °FPassing clouds.2 mph83%30.07 "HgN/A
7:45 PM66 °FPassing clouds.3 mph73%30.07 "HgN/A
7:15 PM64 °FPassing clouds.2 mph78%30.07 "HgN/A
6:45 PM64 °FPassing clouds.1 mph78%30.07 "HgN/A
6:15 PM64 °FPassing clouds.3 mph78%30.07 "HgN/A
5:45 PM64 °FPassing clouds.5 mph78%30.07 "HgN/A
5:15 PM64 °FPassing clouds.6 mph78%30.07 "HgN/A
Weather by CustomWeather, © 2014

See weather overviewHow to use our weather pages